[[{"header":{"parameterUnit":"m.s-1","parameterCategory":1,"la1":30.2991,"la2":30.254,"lo1":-89.0895,"lo2":-89.0444,"dy":0.0017,"dx":0.0017,"nx":28,"ny":28,"refTime":"2024-03-16T03:00:00:Z","depth":0,"parameterNumber":2,"parameterNumberName":"U-component_of_WINDS"},"data":[0,0,0,0,0,0,0,0,0,0,0,0,0,0,0,0,0,0,0,0,0,0,0,0,0,0,0,0,0,0,0,0,0,0,0,0,0,0,0,0,0,0,0,0,0,0,0,0,0,0,0,0,0,0,0,0,0,0,-0.9259,-0.9258,0,-0.9139,-0.9138,-0.9136,-0.9119,-0.912,-0.9121,-0.9122,-0.8994,-0.899,-0.8985,0,0,0,0,0,0,0,0,0,0,0,0,0,-0.9468,-0.9465,-0.9259,-0.9257,-0.9256,-0.9139,-0.9138,-0.9136,-0.9119,-0.912,-0.9121,-0.9123,-0.8995,-0.899,-0.8985,0,0,0,0,0,0,0,0,0,0,0,0,0,-0.9366,-0.9463,-0.9259,-0.9233,-0.923,-0.914,-0.9137,-0.9135,-0.9118,-0.912,-0.9122,-0.9123,-0.8997,-0.8991,-0.8984,-0.8909,0,0,-0.8964,-0.8961,0,0,0,0,0,0,0,0,-0.9372,-0.9358,-0.9239,-0.9235,-0.9231,-0.9146,-0.9164,-0.9059,-0.9118,-0.916,-0.9122,-0.9124,-0.9043,-0.9032,-0.9006,-0.8903,-0.8898,-0.8963,-0.8959,-0.8956,-0.8954,0,0,0,0,0,0,0,-0.9379,-0.9363,-0.9211,-0.9237,-0.9232,-0.9226,-0.9214,-0.9144,-0.9093,-0.9157,-0.9155,-0.9142,-0.9041,-0.9012,-0.9003,-0.8896,-0.8963,-0.8957,-0.8953,-0.8951,-0.8727,-0.8725,0,0,0,0,0,0,-0.9391,-0.9369,-0.9215,-0.9208,-0.9307,-0.9221,-0.9207,-0.9171,-0.9094,-0.9084,-0.914,-0.9141,-0.9023,-0.9011,-0.8998,-0.8906,-0.8956,-0.895,-0.8946,-0.8729,-0.8726,-0.8724,0,0,0,0,0,0,-0.9396,-0.9378,-0.922,-0.9288,-0.9268,-0.9216,-0.9176,-0.9168,-0.914,-0.9082,-0.9072,-0.9121,-0.9024,-0.9008,-0.8932,-0.8902,-0.8947,-0.8941,-0.8731,-0.8728,-0.8725,-0.8721,0,0,0,0,0,0,-0.9402,-0.9379,-0.9352,-0.9288,-0.9264,-0.9157,-0.9174,-0.9164,-0.9129,-0.9129,-0.9061,-0.9051,-0.9024,-0.8942,-0.8926,-0.8893,-0.8936,-0.8733,-0.873,-0.8726,-0.8724,-0.8719,-0.8714,0,0,0,0,0,-0.9409,-0.9354,-0.935,-0.9332,-0.9228,-0.9155,-0.9142,-0.9113,-0.9127,-0.9097,-0.906,-0.9054,-0.8908,-0.8935,-0.8916,-0.8881,-0.8735,-0.8731,-0.8726,-0.8726,-0.872,-0.8714,0,0,0,0,0,0,-0.9413,-0.9345,-0.934,-0.9263,-0.9215,-0.9153,-0.9115,-0.9107,-0.9053,-0.9055,-0.902,-0.9004,-0.8931,-0.8898,-0.8929,-0.8805,-0.8822,-0.8814,-0.8829,-0.8822,-0.8818,-0.8827,-0.893,0,0,0,0,0,-0.9406,-0.9354,-0.9296,-0.9233,-0.921,-0.9167,-0.9134,-0.9116,-0.9064,-0.9044,-0.9001,-0.895,-0.8893,-0.8856,-0.88,-0.872,-0.8704,-0.8686,-0.8681,-0.8678,-0.8671,-0.8626,-0.8617,-0.871,-0.871,-0.871,0,0,-0.9388,-0.9344,-0.9313,-0.9233,-0.9194,-0.914,-0.915,-0.9092,-0.9051,-0.9034,-0.8961,-0.8928,-0.8869,-0.8791,-0.8754,-0.8761,-0.8642,-0.8672,-0.867,-0.8664,-0.8621,-0.8612,-0.8604,-0.8707,-0.8707,-0.8708,0,0,-0.9329,-0.9291,-0.9235,-0.9196,-0.9138,-0.911,-0.9097,-0.9035,-0.9014,-0.894,-0.8927,-0.8877,-0.8779,-0.8738,-0.8704,-0.863,-0.8622,-0.8613,-0.8587,-0.8544,-0.8537,-0.853,-0.8504,-0.8495,-0.8606,-0.8606,-0.8606,0,-0.9314,-0.9234,-0.9206,-0.9149,-0.9114,-0.9099,-0.9041,-0.9005,-0.893,-0.8906,-0.8915,-0.8793,-0.8752,-0.8665,-0.8647,-0.862,-0.8603,-0.862,-0.854,-0.8533,-0.8527,-0.8501,-0.8492,-0.8606,-0.8606,-0.8606,-0.8606,0,-0.9218,-0.9163,-0.9124,-0.9055,-0.9016,-0.8958,-0.8921,-0.8884,-0.887,-0.8841,-0.8766,-0.8716,-0.8651,-0.8629,-0.8613,-0.8539,-0.8545,-0.8548,-0.8565,-0.8518,-0.8493,-0.8483,-0.8605,-0.8605,-0.8605,-0.8605,0,0,-0.9157,-0.9075,-0.9061,-0.903,-0.8966,-0.8921,-0.8863,-0.8801,-0.877,-0.872,-0.867,-0.8588,-0.8591,-0.8552,-0.8532,-0.8495,-0.844,-0.8502,-0.85,-0.8492,-0.8355,-0.8353,-0.8342,-0.8435,-0.8433,-0.8431,-0.836,0,-0.909,-0.8988,-0.8963,-0.8875,-0.8823,-0.8809,-0.8758,-0.8712,-0.8683,-0.8634,-0.8601,-0.8544,-0.8552,-0.8529,-0.8492,-0.8455,-0.8412,-0.846,-0.8387,-0.8384,-0.8402,-0.833,-0.8327,-0.8262,-0.835,-0.8349,-0.8347,0,-0.8998,-0.8949,-0.8857,-0.88,-0.8777,-0.8732,-0.8673,-0.8627,-0.8574,-0.8556,-0.8514,-0.8498,-0.8436,-0.8457,-0.8371,-0.8404,-0.8373,-0.835,-0.8347,-0.8338,-0.8363,-0.8319,-0.8241,-0.8231,-0.8332,-0.8333,-0.8334,0,-0.8963,-0.8873,-0.8806,-0.878,-0.8712,-0.8681,-0.8651,-0.86,-0.8565,-0.8513,-0.8489,-0.843,-0.8398,-0.8352,-0.832,-0.8338,-0.8236,-0.8254,-0.8218,-0.8219,-0.8197,-0.8199,-0.8113,-0.8178,-0.8178,-0.8178,-0.8178,0,-0.8891,-0.8835,-0.879,-0.8749,-0.8686,-0.8656,-0.8594,-0.8563,-0.8519,-0.8471,-0.8454,-0.8409,-0.837,-0.8319,-0.8293,-0.8226,-0.8211,-0.8194,-0.8188,-0.8195,-0.8197,-0.8174,-0.8177,-0.8175,-0.8176,-0.8176,-0.8177,0,-0.8841,-0.8808,-0.8735,-0.8677,-0.8661,-0.8617,-0.8567,-0.8526,-0.8498,-0.8437,-0.8421,-0.8375,-0.8315,-0.8279,-0.8202,-0.8185,-0.811,-0.8106,-0.8128,-0.8126,-0.8092,-0.8095,-0.7987,-0.7971,-0.8047,-0.8046,-0.8046,0,-0.8797,-0.8754,-0.8693,-0.866,-0.863,-0.8578,-0.8542,-0.8511,-0.8475,-0.8413,-0.8379,-0.8318,-0.8268,-0.8172,-0.8131,-0.8072,-0.8066,-0.8032,-0.8057,-0.8066,-0.8065,-0.8068,-0.8063,-0.8028,-0.8027,-0.8026,-0.8026,0,-0.8723,-0.8709,-0.8659,-0.8604,-0.8562,-0.8516,-0.8471,-0.8445,-0.8406,-0.8365,-0.8305,-0.8266,-0.8188,-0.8128,-0.8066,-0.8033,-0.8023,-0.8019,-0.8007,-0.8014,-0.8029,-0.802,-0.8117,-0.8021,-0.8022,-0.8022,-0.8022,-0.8022,-0.8674,-0.8635,-0.8587,-0.8531,-0.8494,-0.8453,-0.8412,-0.8379,-0.8328,-0.8264,-0.8249,-0.8185,-0.8133,-0.805,-0.8016,-0.7965,-0.797,-0.7953,-0.7949,-0.7945,-0.7944,-0.8038,-0.7953,-0.7953,-0.7953,-0.7953,-0.7953,0,-0.8599,-0.8567,-0.8517,-0.8455,-0.8411,-0.8407,-0.8357,-0.832,-0.8265,-0.8219,-0.8171,-0.8101,-0.8042,-0.7998,-0.7937,-0.7905,-0.7899,-0.789,-0.7892,-0.7885,-0.7943,-0.7959,-0.7896,-0.7896,-0.7896,-0.7896,-0.7896,-0.7896,-0.8554,-0.8489,-0.847,-0.8386,-0.8354,-0.8293,-0.8264,-0.8225,-0.8189,-0.8112,-0.8064,-0.8036,-0.799,-0.7927,-0.7873,-0.7861,-0.7839,-0.7832,-0.7819,-0.7874,-0.788,-0.7886,-0.7901,-0.7827,-0.7827,-0.7765,-0.7764,-0.7764]},{"header":{"parameterUnit":"m.s-1","parameterCategory":1,"la1":30.2991,"la2":30.254,"lo1":-89.0895,"lo2":-89.0444,"dy":0.0017,"dx":0.0017,"nx":28,"ny":28,"refTime":"2024-03-16T03:00:00:Z","depth":0,"parameterNumber":3,"parameterNumberName":"V-component_of_WINDS"},"data":[0,0,0,0,0,0,0,0,0,0,0,0,0,0,0,0,0,0,0,0,0,0,0,0,0,0,0,0,0,0,0,0,0,0,0,0,0,0,0,0,0,0,0,0,0,0,0,0,0,0,0,0,0,0,0,0,0,0,1.0367,1.0366,0,1.0302,1.0302,1.0301,1.0255,1.0255,1.0254,1.0254,1.0186,1.0185,1.0183,0,0,0,0,0,0,0,0,0,0,0,0,0,1.0453,1.0452,1.0367,1.0366,1.0366,1.0302,1.0302,1.0301,1.0255,1.0255,1.0254,1.0254,1.0187,1.0185,1.0183,0,0,0,0,0,0,0,0,0,0,0,0,0,1.0405,1.0451,1.0367,1.0335,1.0332,1.0303,1.0301,1.03,1.0255,1.0255,1.0254,1.0254,1.0187,1.0185,1.0183,1.018,0,0,1.0176,1.0175,0,0,0,0,0,0,0,0,1.0407,1.0402,1.0341,1.0337,1.0333,1.0286,1.0307,1.026,1.0255,1.0284,1.0254,1.0253,1.022,1.0215,1.0204,1.0177,1.0174,1.0176,1.0175,1.0174,1.0173,0,0,0,0,0,0,0,1.0411,1.0404,1.0341,1.034,1.0336,1.0325,1.0317,1.0298,1.0256,1.0282,1.0278,1.0271,1.0218,1.0206,1.0202,1.0173,1.0176,1.0174,1.0173,1.0172,1.0144,1.0145,0,0,0,0,0,0,1.0419,1.0407,1.0344,1.034,1.037,1.0323,1.0315,1.0302,1.0256,1.0248,1.0272,1.0269,1.021,1.0205,1.0199,1.0195,1.0174,1.0172,1.017,1.0144,1.0144,1.0145,0,0,0,0,0,0,1.0421,1.0414,1.0346,1.0372,1.0363,1.0323,1.0308,1.0301,1.0289,1.0248,1.0241,1.0267,1.0209,1.0202,1.0186,1.0192,1.0171,1.0169,1.0143,1.0144,1.0145,1.0185,0,0,0,0,0,0,1.0424,1.0415,1.0413,1.0373,1.0362,1.0334,1.0308,1.03,1.0286,1.0282,1.0242,1.0235,1.0209,1.019,1.0184,1.0188,1.0167,1.0142,1.0143,1.0144,1.0183,1.0187,1.0191,0,0,0,0,0,1.0427,1.0426,1.0413,1.0405,1.0358,1.0334,1.0328,1.0297,1.0286,1.0284,1.0259,1.0237,1.0193,1.0188,1.0181,1.0185,1.0142,1.0143,1.0144,1.0181,1.0186,1.0191,0,0,0,0,0,0,1.0466,1.042,1.0405,1.039,1.0367,1.0326,1.0322,1.0303,1.0281,1.0278,1.0242,1.0233,1.0221,1.0202,1.0198,1.0182,1.0164,1.0165,1.0195,1.0199,1.0203,1.0208,1.0165,0,0,0,0,0,1.0473,1.0457,1.0418,1.0409,1.0398,1.0363,1.0351,1.033,1.0303,1.0293,1.0266,1.0241,1.0222,1.021,1.0189,1.0181,1.0172,1.018,1.0184,1.0188,1.0188,1.0184,1.0188,1.0149,1.0149,1.0149,0,0,1.0487,1.046,1.0452,1.0416,1.0395,1.038,1.0354,1.0338,1.0327,1.029,1.0273,1.0253,1.0223,1.0212,1.0205,1.0195,1.0197,1.0189,1.0192,1.019,1.0186,1.019,1.0193,1.015,1.015,1.015,0,0,1.0505,1.0482,1.0474,1.0454,1.0424,1.0401,1.0399,1.0362,1.0348,1.0331,1.0304,1.0291,1.0257,1.0238,1.0224,1.024,1.0219,1.0234,1.0254,1.0251,1.0254,1.0257,1.0264,1.0267,1.0235,1.0235,1.0235,0,1.0526,1.0502,1.0471,1.0459,1.0445,1.0413,1.0404,1.0387,1.0351,1.0342,1.0332,1.0293,1.027,1.0254,1.0259,1.0248,1.0246,1.0238,1.0256,1.0259,1.0261,1.0267,1.027,1.0237,1.0237,1.0237,1.0236,0,1.053,1.0515,1.0511,1.048,1.0465,1.0455,1.0424,1.0413,1.0395,1.0374,1.0359,1.0331,1.0306,1.0301,1.0282,1.0284,1.0279,1.0263,1.0245,1.0267,1.0272,1.0274,1.024,1.0239,1.0239,1.0238,0,0,1.0567,1.0522,1.0521,1.0508,1.0474,1.0461,1.0451,1.0428,1.042,1.0398,1.0389,1.0364,1.035,1.0334,1.0313,1.0311,1.0328,1.0295,1.0294,1.0303,1.033,1.0343,1.0346,1.0315,1.0315,1.0315,1.0333,0,1.058,1.056,1.0534,1.0522,1.0509,1.048,1.0471,1.045,1.0431,1.0417,1.0396,1.038,1.0362,1.0353,1.0349,1.0326,1.0333,1.0325,1.0306,1.0306,1.0315,1.0348,1.0361,1.0379,1.0335,1.0335,1.0336,0,1.0592,1.0573,1.0561,1.0531,1.0524,1.0517,1.0496,1.0483,1.0459,1.0446,1.043,1.0409,1.0398,1.0382,1.0367,1.0363,1.0354,1.0342,1.0342,1.0339,1.0322,1.0347,1.0384,1.0387,1.0338,1.0338,1.0338,0,1.0622,1.0593,1.0583,1.0572,1.0537,1.0533,1.0518,1.0494,1.0483,1.0465,1.0458,1.0438,1.0427,1.0413,1.0388,1.0378,1.0376,1.0358,1.0366,1.0367,1.0366,1.0366,1.0402,1.036,1.036,1.036,1.036,0,1.0639,1.0632,1.0596,1.059,1.0583,1.0555,1.0549,1.0531,1.0511,1.0502,1.0476,1.0468,1.0434,1.0423,1.0403,1.0395,1.039,1.038,1.0374,1.0382,1.0383,1.0375,1.0373,1.0361,1.0361,1.036,1.036,0,1.067,1.0645,1.0633,1.0602,1.0594,1.0591,1.0565,1.0558,1.0539,1.0528,1.0524,1.0494,1.0479,1.0453,1.043,1.0417,1.0414,1.0404,1.0422,1.0419,1.0428,1.0428,1.0461,1.0464,1.042,1.042,1.0421,0,1.0682,1.0677,1.0647,1.064,1.0627,1.0614,1.0604,1.0577,1.0567,1.0543,1.054,1.0524,1.0509,1.0487,1.0464,1.0447,1.0438,1.0451,1.0435,1.0444,1.0439,1.044,1.044,1.0454,1.0454,1.0455,1.0455,0,1.0707,1.0696,1.0682,1.0666,1.0655,1.064,1.0623,1.0619,1.0589,1.0579,1.0565,1.0554,1.0533,1.0518,1.0498,1.0484,1.0465,1.0461,1.0462,1.0469,1.048,1.0476,1.0432,1.046,1.0459,1.0459,1.0459,1.0459,1.0729,1.0725,1.0704,1.0691,1.0677,1.0663,1.0657,1.0638,1.0626,1.0607,1.0592,1.058,1.056,1.0533,1.052,1.051,1.0501,1.0502,1.0502,1.0503,1.0507,1.0483,1.0506,1.0506,1.0506,1.0506,1.0506,0,1.0754,1.074,1.0729,1.0708,1.0698,1.0683,1.0666,1.0659,1.0648,1.0631,1.0619,1.0604,1.059,1.0568,1.0552,1.0549,1.0541,1.0546,1.0546,1.0544,1.0515,1.0516,1.0554,1.0554,1.0554,1.0554,1.0554,1.0554,1.0765,1.0758,1.0746,1.0732,1.0718,1.0706,1.0698,1.0686,1.0673,1.0658,1.0647,1.0633,1.0615,1.0599,1.0586,1.058,1.0576,1.0584,1.0576,1.055,1.0545,1.0541,1.0542,1.0584,1.0584,1.0604,1.0605,1.0605]}]]